Regional Weather Roundup
Issued by NWS

Home | Current Version | Previous Version | Text Only | Print | Product List | Glossary Off
Versions: 1 2 3 4 5 6 7 8 9 10 11 12 13 14 15 16 17 18 19 20 21 22 23 24 25 26 27 28 29 30 31 32 33 34 35 36 37 38 39 40 41 42 43 44 45 46 47 48 49 50

000
ASUS43 KMKX 031200
RWRWI

WISCONSIN REGIONAL WEATHER ROUNDUP
NATIONAL WEATHER SERVICE MILWAUKEE/SULLIVAN WI
700 AM CDT THU SEP 03 2015

NOTE: "FAIR" INDICATES FEW OR NO CLOUDS BELOW 12,000 FEET WITH NO
SIGNIFICANT WEATHER AND/OR OBSTRUCTIONS TO VISIBILITY.

WIZ001-002-006>008-014>016-023>028-031300-
NORTHWEST WISCONSIN

CITY           SKY/WX    TMP DP  RH WIND       PRES   REMARKS
SUPERIOR ARPT  FOG       59  59 100 NE6       29.97S VSB 1/2
ASHLAND        FOG       61  61 100 CALM      29.99R VSB 1/4
6HR MIN TEMP:  61; 6HR MAX TEMP:  62;

HAYWARD        FOG       62  61  96 E3        29.98R VSB 1
6HR MIN TEMP:  60; 6HR MAX TEMP:  63;

SIREN          FOG       63  63  98 E3        29.95R VSB 1/2
CUMBERLAND     FOG       61  59  94 CALM      29.96R VSB 1/4
RICE LAKE      FOG       60  59  96 CALM      29.97R VSB 1/4
CHETEK         CLEAR    N/A N/A N/A CALM      29.95R HAZE
LADYSMITH      FOG       64  63  97 NE6       29.99R VSB 3/4
6HR MIN TEMP:  61; 6HR MAX TEMP:  68;

EAU CLAIRE     NOT AVBL
MENOMONIE      CLOUDY    68  67  99 NE5       29.93S FOG
6HR MIN TEMP:  66; 6HR MAX TEMP:  68;

NEW RICHMOND   CLOUDY    67  66  99 E7        29.93S FOG
OSCEOLA        MOCLDY    67  67 100 E3        29.95S FOG
$$

WIZ003>005-009-010-017-018-031300-
NORTH CENTRAL WISCONSIN

CITY           SKY/WX    TMP DP  RH WIND       PRES   REMARKS
MANITOWISH WTR FOG       61  61 100 CALM      29.99S VSB 1/4
ARBOR VITAE    FOG       63  61  96 NE3       30.00R VSB 3/4
WOODRUFF       FOG       63  61  96 NE3       30.00R VSB 3/4
RHINELANDER    CLOUDY    64  62  93 NE5       30.00R
6HR MIN TEMP:  63; 6HR MAX TEMP:  65;

EAGLE RIVER    CLEAR     61  61 100 CALM      29.99R FOG
LAND O LAKES   CLEAR     59  59 100 CALM      30.01R
PHILLIPS       CLOUDY    64  63  99 CALM      29.99R
6HR MIN TEMP:  62; 6HR MAX TEMP:  64;

TOMAHAWK       CLOUDY    64  62  94 CALM      29.98R
MEDFORD        FOG       63  63 100 NE6       29.98R VSB 3/4
MERRILL        CLOUDY    65  65 100 NE6       29.98R
6HR MIN TEMP:  64; 6HR MAX TEMP:  68;

$$

WIZ029-030-035-036-043>047-031300-
CENTRAL WISCONSIN

CITY           SKY/WX    TMP DP  RH WIND       PRES   REMARKS
WAUSAU         CLOUDY    66  64  93 CALM      29.95R
6HR MIN TEMP:  65; 6HR MAX TEMP:  69; 6HR PCP: TRACE;

MOSINEE        CLOUDY    64  64 100 N6        29.97R FOG
MARSHFIELD     FOG       67  64  90 NE9       29.95R VSB 1/4
6HR MIN TEMP:  66; 6HR MAX TEMP:  71; 6HR PCP: TRACE;

STEVENS POINT  CLOUDY    64  64 100 N6        29.95R FOG
WAUPACA        MOCLDY    69  69  98 N6        29.93R
WAUTOMA        PTCLDY    66  66 100 CALM      29.93R FOG
WISC RAPIDS    CLOUDY    68  65  90 NE7       29.95R FOG
6HR MIN TEMP:  66; 6HR MAX TEMP:  73; 6HR PCP: TRACE;

CAMP DOUGLAS   NOT AVBL
$$

WIZ011>013-019>022-031-037>040-048>050-031300-
NORTHEAST WISCONSIN

CITY           SKY/WX    TMP DP  RH WIND       PRES   REMARKS
ANTIGO         CLOUDY    63  63 100 N5        29.96S FOG
SHAWANO        NOT AVBL
OCONTO         CLOUDY    66  66 100 CALM      29.90R
STURGEON BAY   CLOUDY    64  63  94 CALM      29.92S VSB 1/4
6HR MIN TEMP:  64; 6HR MAX TEMP:  66;

GREEN BAY      CLOUDY    69  67  93 W5        29.92R
6HR MIN TEMP:  68; 6HR MAX TEMP:  70; 6HR PCP:  0.09;

MANITOWOC      NOT AVBL
APPLETON       CLOUDY    66  66 100 NW9       29.91R FOG
CLINTONVILLE   MOCLDY    66  64  94 N5        29.93R
OSHKOSH        CLOUDY    71  68  90 N6        29.91R FOG
6HR MIN TEMP:  71; 6HR MAX TEMP:  73; 6HR PCP: TRACE;

$$

WIZ032>034-041-042-053>061-031300-
SOUTHWEST WISCONSIN

CITY           SKY/WX    TMP DP  RH WIND       PRES   REMARKS
LA CROSSE      CLEAR     70  68  93 CALM      29.91R FOG
6HR MIN TEMP:  68; 6HR MAX TEMP:  75;

SPARTA         MOCLDY    62  61  96 CALM      29.93R FOG
VIROQUA          N/A     65  65 100 CALM      29.93S VSB 1
BOSCOBEL       FOG       67  66  97 CALM      29.92R VSB<1/4
6HR MIN TEMP:  67; 6HR MAX TEMP:  76;

PRAIRIE DU CHI CLEAR     69  67  92 CALM      29.91S
PLATTEVILLE    PTCLDY    68  67  97 S6        29.94S
$$

WIZ056-057-062-063-064-067-068-031300-
SOUTH CENTRAL WISCONSIN

CITY           SKY/WX    TMP DP  RH WIND       PRES   REMARKS
REEDSBURG      CLEAR     69  67  94 NE5       29.92R
BARABOO/DELLS  CLEAR     69  66  90 CALM      29.93R
LONE ROCK      PTCLDY    65  63  93 CALM      29.93R FOG
MINERAL POINT  MOCLDY    72  68  88 SW5       29.94S
MADISON        PTCLDY    72  67  84 SW3       29.93R
6HR MIN TEMP:  70; 6HR MAX TEMP:  75;

MIDDLETON      CLEAR     67  67  98 CALM      29.93S
WATERTOWN      PTCLDY    69  69 100 SW3       29.92R
MONROE         CLEAR     70  66  88 SW8       29.94R
JANESVILLE     PTCLDY    70  68  94 CALM      29.94R FOG
$$

WIZ051-052-058>065-066-070>072-031300-
SOUTHEAST WISCONSIN

CITY           SKY/WX    TMP DP  RH WIND       PRES   REMARKS
MILWAUKEE      MOCLDY    73  67  81 SW13      29.91F
6HR MIN TEMP:  73; 6HR MAX TEMP:  77;

WAUKESHA       PTCLDY    70  66  88 SW6       29.94S
MILWAUKEE/TIMM CLEAR     72  66  83 SW7       29.92S
RACINE         PTCLDY    73  67  81 SW7       29.94S
6HR MIN TEMP:  71; 6HR MAX TEMP:  75;

BURLINGTON     PTCLDY    66  65  97 SW3       29.94S FOG
KENOSHA        MOCLDY    73  68  84 SW5       29.94S
6HR MIN TEMP:  71; 6HR MAX TEMP:  75;

FOND DU LAC    CLOUDY    71  69  93 SW6       29.91S FOG
6HR MIN TEMP:  70; 6HR MAX TEMP:  74; 6HR PCP:  0.02;

SHEBOYGAN      CLOUDY    71  70  96 SW6       29.90S FOG
6HR MIN TEMP:  68; 6HR MAX TEMP:  74; 6HR PCP:  0.46;

WEST BEND      CLOUDY    70  66  88 W5        29.92R
JUNEAU         MOCLDY    69  67  94 CALM      29.94S FOG
$$

LSZ147-162-031300-
LAKE SUPERIOR

STATION/POSITION TIME  TEMP    WIND        PRES    WAVE
                       AIR SEA DIR/SP/G            HT/PER
                 (UTC) (F)     (DEG/KT/KT) (MB)    (FT/S)
W MID LAKE BUOY  1050   57 56   50/  8/  8 1014.9R   0
DEVILS ISLAND    1100   57      70/  5/  6 1015.1R
PORT WING        1100   59      50/  4/  5 1014.9S
SAXON HARBOR     1100   60        CALM     1014.6
$$

LMZ867-665-643>646-031300-
LAKE MICHIGAN

STATION/POSITION TIME  TEMP    WIND        PRES    WAVE
                       AIR SEA DIR/SP/G            HT/PER
                 (UTC) (F)     (DEG/KT/KT) (MB)    (FT/S)
CHAMBERS ISLAND  1100   66      30/  8/  9 1012.5R
S GREEN BAY BUOY 1100   67 66  330/  6/  8 1013.5R
N MID LAKE BUOY  1050   67 66  100/ 17/ 21 1011.2F   3/ 5
NORTHPORT PIER   1100   66     100/ 13/ 16 1012.2R
SISTER BAY       1111   66     110/ 10/ 13   N/A
ALGOMA LAKESHORE 1114             CALM       N/A
KEWAUNEE LAKESHO 1100   63     260/  1/  2 1010.8S
SHEBOYGAN LAKESH 1100   71     230/  8/  8 1012.2R
PORT WASHINGTON  1100   62     170/  2/  6 1013.2S
ATWATER BUOY     1100   68     230/  8/ 10 1014.2F
MILWAUKEE LAKESH 1110   74     240/ 11/ 12   N/A
S MID LAKE BUOY  1150   73 71  210/ 10/ 12 1012.8R   1
KENOSHA   LAKESH 1100   75     230/  5/  9 1013.2F
$$

TC  - TEMPERATURE IN CELSIUS
VSB - VISIBILITY IN STATUTE MILES
WCI - WIND CHILL INDEX
HX  - HEAT INDEX




USA.gov is the U.S. government's official web portal to all federal, state and local government web resources and services.